Regional Weather Roundup
Issued by NWS

Home | Current Version | Previous Version | Graphics & Text | Print | Product List | Glossary On
Versions: 1 2 3 4 5 6 7 8 9 10 11 12 13 14 15 16 17 18 19 20 21 22 23 24 25 26 27 28 29 30 31 32 33 34 35 36 37 38 39 40 41 42 43 44 45 46 47 48 49 50
062
ASUS43 KFSD 261810
RWRSD

WEATHER ROUNDUP FOR SOUTH DAKOTA
NATIONAL WEATHER SERVICE SIOUX FALLS SD
100 PM CDT THU APR 26 2018

NOTE: "FAIR" INDICATES FEW OR NO CLOUDS BELOW 12,000 FEET WITH NO
SIGNIFICANT WEATHER AND/OR OBSTRUCTIONS TO VISIBILITY.


SDZ001>005-009-010-012>017-261900-
NORTHWEST AND NORTH CENTRAL SOUTH DAKOTA

CITY           SKY/WX    TMP DP  RH WIND       PRES   REMARKS
BUFFALO          N/A     59  28  30 NW13      30.15F
FAITH            N/A     59  30  33 N20       30.19S
MOBRIDGE       MOSUNNY   61  32  33 W15       30.13F
$$

SDZ012>016-024>037-041>051-057-063-072>074-261900-
SOUTHWEST AND SOUTH CENTRAL SOUTH DAKOTA

CITY           SKY/WX    TMP DP  RH WIND       PRES   REMARKS
RAPID CTY ARPT SUNNY     58  31  35 NW10G23   30.23F
PIERRE         MOSUNNY   60  26  27 N16G26    30.16S
CUSTER         MOSUNNY   51  19  28 N13G18    30.24S
PHILIP         MOSUNNY   61  27  27 N21G31    30.20F
PINE RIDGE     PTSUNNY   56  28  34 N16G24    30.24S
SPEARFISH      FAIR      55  28  35 W12G20    30.24F
WINNER         FAIR      62  26  25 N20G29    30.17R
$$

SDZ004>011-016>023-039-040-261900-
NORTHEAST SOUTH DAKOTA

CITY           SKY/WX    TMP DP  RH WIND       PRES   REMARKS
ABERDEEN       SUNNY     61  27  27 N24G32    30.11S
WATERTOWN      SUNNY     56  28  34 N25G36    30.05R
BROOKINGS      SUNNY     54  31  41 N25G33    30.04R
SISSETON         N/A     57  30  35 N29G38    30.04S
$$

SDZ017-020-022-023-036>040-048>070-261900-
SOUTHEAST SOUTH DAKOTA

CITY           SKY/WX    TMP DP  RH WIND       PRES   REMARKS
SIOUX FALLS    MOSUNNY   59  28  30 N25G37    30.03R
HURON          SUNNY     59  29  31 N23G38    30.10S
CHAMBERLAIN    SUNNY     61  28  29 N17G26    30.14S
MITCHELL       SUNNY     60  31  33 N25G38    30.10R
YANKTON        SUNNY     59  32  36 N28G38    30.04R
$$

ABBREVIATIONS USED IN REMARKS
   TC - TEMPERATURE IN CELSIUS
  WCI - WIND CHILL INDEX
   HX - HEAT INDEX
  VSB - VISIBILITY





USA.gov is the U.S. government's official web portal to all federal, state and local government web resources and services.